contact:dominique.lefevre@mio.osupytheas.fr, maurice.libes@osupytheas.fr, didier.mallarino@osupytheas.fr
Project:EMSO http://www.emso-fr.org/EMSO-France
Depth: 2436.0 m
Title:EMSO Ligure Ouest : Data MII capteur CSTAR
DateTime,Latitude,Longitude,Instrument_Serial,Reference_Counts,Signal_Counts,Corrected_Signal_raw_counts,Calculated_Beam_c_inverse_meters,Internal_thermistor_counts
DateTime,Latitude,Longitude,Instrument_Serial,Reference_Counts,Signal_Counts,Corrected_Signal_raw_counts,Calculated_Beam_c_inverse_meters,Internal_thermistor_counts
2023-04-21T00:02:23,42.805,6.029,CST-1368DR,4323,4758,11688,01.159,551
2023-04-21T00:05:24,42.805,6.029,CST-1368DR,4323,4758,11688,01.159,551
2023-04-21T00:08:26,42.805,6.029,CST-1368DR,4323,4756,11683,01.161,551
2023-04-21T00:11:28,42.805,6.029,CST-1368DR,4323,4758,11687,01.159,551
2023-04-21T00:14:29,42.805,6.029,CST-1368DR,4323,4759,11689,01.159,552
2023-04-21T00:17:31,42.805,6.029,CST-1368DR,4323,4758,11687,01.159,552
2023-04-21T00:20:32,42.805,6.029,CST-1368DR,4323,4757,11685,01.160,551
2023-04-21T00:23:34,42.805,6.029,CST-1368DR,4323,4757,11685,01.160,551
2023-04-21T00:26:36,42.805,6.029,CST-1368DR,4323,4758,11688,01.159,551
2023-04-21T00:29:37,42.805,6.029,CST-1368DR,4323,4758,11686,01.160,551
2023-04-21T00:32:39,42.805,6.029,CST-1368DR,4323,4758,11686,01.160,551
2023-04-21T00:35:40,42.805,6.029,CST-1368DR,4323,4758,11687,01.159,551
2023-04-21T00:38:42,42.805,6.029,CST-1368DR,4323,4757,11686,01.160,551
2023-04-21T00:41:43,42.805,6.029,CST-1368DR,4323,4758,11686,01.160,552
2023-04-21T00:44:45,42.805,6.029,CST-1368DR,4323,4758,11687,01.159,551
2023-04-21T00:47:47,42.805,6.029,CST-1368DR,4323,4758,11687,01.159,551
2023-04-21T00:50:48,42.805,6.029,CST-1368DR,4323,4758,11686,01.160,551
2023-04-21T00:53:50,42.805,6.029,CST-1368DR,4323,4758,11686,01.160,551
2023-04-21T00:56:51,42.805,6.029,CST-1368DR,4323,4759,11690,01.158,551
2023-04-21T00:59:53,42.805,6.029,CST-1368DR,4323,4759,11689,01.159,552
2023-04-21T01:02:54,42.805,6.029,CST-1368DR,4323,4757,11685,01.160,551
2023-04-21T01:05:56,42.805,6.029,CST-1368DR,4323,4758,11688,01.159,552
2023-04-21T01:08:58,42.805,6.029,CST-1368DR,4323,4756,11683,01.161,551
2023-04-21T01:11:59,42.805,6.029,CST-1368DR,4323,4757,11686,01.160,551
2023-04-21T01:15:01,42.805,6.029,CST-1368DR,4323,4760,11691,01.158,551
2023-04-21T01:18:02,42.805,6.029,CST-1368DR,4323,4758,11687,01.159,552
2023-04-21T01:21:04,42.805,6.029,CST-1368DR,4323,4758,11686,01.160,551
2023-04-21T01:24:06,42.805,6.029,CST-1368DR,4323,4759,11689,01.159,551
2023-04-21T01:27:07,42.805,6.029,CST-1368DR,4323,4758,11687,01.159,551
2023-04-21T01:30:09,42.805,6.029,CST-1368DR,4323,4759,11689,01.159,551
2023-04-21T01:33:10,42.805,6.029,CST-1368DR,4323,4758,11687,01.159,551
2023-04-21T01:36:12,42.805,6.029,CST-1368DR,4323,4758,11688,01.159,551
2023-04-21T01:39:13,42.805,6.029,CST-1368DR,4323,4759,11689,01.159,551
2023-04-21T01:42:15,42.805,6.029,CST-1368DR,4323,4757,11685,01.160,552
2023-04-21T01:45:17,42.805,6.029,CST-1368DR,4323,4757,11686,01.160,551
2023-04-21T01:48:18,42.805,6.029,CST-1368DR,4323,4758,11687,01.159,551
2023-04-21T01:51:20,42.805,6.029,CST-1368DR,4323,4751,11670,01.165,551
2023-04-21T01:54:21,42.805,6.029,CST-1368DR,4323,4757,11685,01.160,551
2023-04-21T01:57:23,42.805,6.029,CST-1368DR,4323,4757,11686,01.160,552
2023-04-21T02:00:24,42.805,6.029,CST-1368DR,4323,4758,11688,01.159,551
2023-04-21T02:03:26,42.805,6.029,CST-1368DR,4323,4759,11689,01.159,551
2023-04-21T02:06:28,42.805,6.029,CST-1368DR,4323,4759,11689,01.159,551
2023-04-21T02:09:29,42.805,6.029,CST-1368DR,4323,4758,11688,01.159,551
2023-04-21T02:12:31,42.805,6.029,CST-1368DR,4323,4757,11686,01.160,552
2023-04-21T02:15:32,42.805,6.029,CST-1368DR,4323,4757,11685,01.160,552
2023-04-21T02:18:34,42.805,6.029,CST-1368DR,4323,4758,11687,01.159,551
2023-04-21T02:21:35,42.805,6.029,CST-1368DR,4323,4759,11689,01.159,551
2023-04-21T02:24:37,42.805,6.029,CST-1368DR,4323,4758,11686,01.160,551
2023-04-21T02:27:39,42.805,6.029,CST-1368DR,4323,4756,11683,01.161,551
2023-04-21T02:30:40,42.805,6.029,CST-1368DR,4323,4758,11687,01.159,551
2023-04-21T02:33:42,42.805,6.029,CST-1368DR,4323,4759,11689,01.159,552
2023-04-21T02:36:43,42.805,6.029,CST-1368DR,4323,4755,11680,01.162,551
2023-04-21T02:39:45,42.805,6.029,CST-1368DR,4323,4757,11685,01.160,551
2023-04-21T02:42:47,42.805,6.029,CST-1368DR,4323,4757,11685,01.160,552
2023-04-21T02:45:48,42.805,6.029,CST-1368DR,4323,4759,11690,01.158,551
2023-04-21T02:48:50,42.805,6.029,CST-1368DR,4323,4758,11686,01.160,551
2023-04-21T02:51:51,42.805,6.029,CST-1368DR,4323,4753,11676,01.163,551
2023-04-21T02:54:53,42.805,6.029,CST-1368DR,4323,4757,11685,01.160,551
2023-04-21T02:57:54,42.805,6.029,CST-1368DR,4323,4758,11686,01.160,551
2023-04-21T03:00:56,42.805,6.029,CST-1368DR,4323,4754,11677,01.163,551
2023-04-21T03:03:58,42.805,6.029,CST-1368DR,4323,4758,11686,01.160,551
2023-04-21T03:06:59,42.805,6.029,CST-1368DR,4323,4758,11688,01.159,551
2023-04-21T03:10:01,42.805,6.029,CST-1368DR,4323,4759,11689,01.159,551
2023-04-21T03:13:02,42.805,6.029,CST-1368DR,4323,4758,11688,01.159,552
2023-04-21T03:16:04,42.805,6.029,CST-1368DR,4323,4758,11687,01.159,551
2023-04-21T03:19:05,42.805,6.029,CST-1368DR,4323,4758,11687,01.159,551
2023-04-21T03:22:07,42.805,6.029,CST-1368DR,4323,4757,11685,01.160,551
2023-04-21T03:25:09,42.805,6.029,CST-1368DR,4323,4751,11670,01.165,551
2023-04-21T03:28:10,42.805,6.029,CST-1368DR,4323,4757,11685,01.160,551
2023-04-21T03:31:12,42.805,6.029,CST-1368DR,4323,4757,11685,01.160,551
2023-04-21T03:34:13,42.805,6.029,CST-1368DR,4323,4758,11687,01.159,551
2023-04-21T03:37:15,42.805,6.029,CST-1368DR,4323,4758,11686,01.160,551
2023-04-21T03:40:17,42.805,6.029,CST-1368DR,4323,4757,11685,01.160,551
2023-04-21T03:43:18,42.805,6.029,CST-1368DR,4323,4757,11684,01.160,552
2023-04-21T03:46:20,42.805,6.029,CST-1368DR,4323,4758,11688,01.159,551
2023-04-21T03:49:21,42.805,6.029,CST-1368DR,4323,4757,11686,01.160,551
2023-04-21T03:52:23,42.805,6.029,CST-1368DR,4323,4757,11685,01.160,551
2023-04-21T03:55:24,42.805,6.029,CST-1368DR,4323,4757,11685,01.160,551
2023-04-21T03:58:26,42.805,6.029,CST-1368DR,4323,4757,11686,01.160,551
2023-04-21T04:01:28,42.805,6.029,CST-1368DR,4323,4753,11674,01.164,551
2023-04-21T04:04:29,42.805,6.029,CST-1368DR,4323,4755,11679,01.162,551
2023-04-21T04:07:31,42.805,6.029,CST-1368DR,4323,4757,11684,01.160,551
2023-04-21T04:10:32,42.805,6.029,CST-1368DR,4323,4757,11685,01.160,551
2023-04-21T04:13:34,42.805,6.029,CST-1368DR,4323,4757,11685,01.160,552
2023-04-21T04:16:35,42.805,6.029,CST-1368DR,4323,4751,11670,01.165,551
2023-04-21T04:19:37,42.805,6.029,CST-1368DR,4323,4757,11685,01.160,552
2023-04-21T04:22:39,42.805,6.029,CST-1368DR,4323,4757,11685,01.160,551
2023-04-21T04:25:40,42.805,6.029,CST-1368DR,4323,4757,11685,01.160,552
2023-04-21T04:28:42,42.805,6.029,CST-1368DR,4323,4757,11685,01.160,552
2023-04-21T04:31:45,42.805,6.029,CST-1368DR,4323,4757,11685,01.160,551
2023-04-21T04:34:47,42.805,6.029,CST-1368DR,4323,4757,11684,01.160,552
2023-04-21T04:37:48,42.805,6.029,CST-1368DR,4323,4758,11688,01.159,551
2023-04-21T04:40:50,42.805,6.029,CST-1368DR,4323,4758,11686,01.160,552
2023-04-21T04:43:52,42.805,6.029,CST-1368DR,4323,4757,11685,01.160,551
2023-04-21T04:46:53,42.805,6.029,CST-1368DR,4323,4757,11686,01.160,551
2023-04-21T04:49:55,42.805,6.029,CST-1368DR,4323,4756,11681,01.161,551
2023-04-21T04:52:56,42.805,6.029,CST-1368DR,4323,4756,11683,01.161,551
2023-04-21T04:55:58,42.805,6.029,CST-1368DR,4323,4757,11684,01.160,552
2023-04-21T04:58:59,42.805,6.029,CST-1368DR,4323,4757,11684,01.160,551
2023-04-21T05:02:01,42.805,6.029,CST-1368DR,4323,4756,11683,01.161,551
2023-04-21T05:05:03,42.805,6.029,CST-1368DR,4323,4759,11689,01.159,551
2023-04-21T05:08:04,42.805,6.029,CST-1368DR,4323,4757,11684,01.160,551
2023-04-21T05:11:06,42.805,6.029,CST-1368DR,4323,4759,11689,01.159,551
2023-04-21T05:14:07,42.805,6.029,CST-1368DR,4323,4760,11691,01.158,551
2023-04-21T05:17:09,42.805,6.029,CST-1368DR,4323,4764,11703,01.154,552
2023-04-21T05:20:11,42.805,6.029,CST-1368DR,4323,4762,11697,01.156,551
2023-04-21T05:23:12,42.805,6.029,CST-1368DR,4323,4766,11706,01.153,552
2023-04-21T05:26:14,42.805,6.029,CST-1368DR,4323,4751,11670,01.165,551
2023-04-21T05:29:15,42.805,6.029,CST-1368DR,4323,4756,11683,01.161,551
2023-04-21T05:32:17,42.805,6.029,CST-1368DR,4323,4768,11711,01.151,551
2023-04-21T05:35:18,42.805,6.029,CST-1368DR,4323,4788,11761,01.134,552
2023-04-21T05:38:20,42.805,6.029,CST-1368DR,4323,4788,11761,01.134,551
2023-04-21T05:41:22,42.805,6.029,CST-1368DR,4323,4787,11759,01.135,551
2023-04-21T05:44:23,42.805,6.029,CST-1368DR,4323,4790,11765,01.133,551
2023-04-21T05:47:25,42.805,6.029,CST-1368DR,4323,4789,11764,01.133,551
2023-04-21T05:50:26,42.805,6.029,CST-1368DR,4323,4789,11764,01.133,551
2023-04-21T05:53:28,42.805,6.029,CST-1368DR,4323,4788,11761,01.134,551
2023-04-21T05:56:29,42.805,6.029,CST-1368DR,4323,4789,11764,01.133,551
2023-04-21T05:59:31,42.805,6.029,CST-1368DR,4323,4790,11765,01.133,550
2023-04-21T06:02:33,42.805,6.029,CST-1368DR,4323,4789,11763,01.133,552
2023-04-21T06:05:34,42.805,6.029,CST-1368DR,4323,4789,11764,01.133,552
2023-04-21T06:08:36,42.805,6.029,CST-1368DR,4323,4789,11764,01.133,552
2023-04-21T06:11:37,42.805,6.029,CST-1368DR,4323,4790,11765,01.133,552
2023-04-21T06:14:39,42.805,6.029,CST-1368DR,4323,4789,11764,01.133,551
2023-04-21T06:17:41,42.805,6.029,CST-1368DR,4323,4789,11764,01.133,551
2023-04-21T06:20:42,42.805,6.029,CST-1368DR,4323,4789,11764,01.133,552
2023-04-21T06:23:44,42.805,6.029,CST-1368DR,4323,4789,11764,01.133,552
2023-04-21T06:26:45,42.805,6.029,CST-1368DR,4323,4787,11759,01.135,552
2023-04-21T06:29:47,42.805,6.029,CST-1368DR,4323,4788,11761,01.134,551
2023-04-21T06:32:48,42.805,6.029,CST-1368DR,4323,4789,11764,01.133,551
2023-04-21T06:35:50,42.805,6.029,CST-1368DR,4323,4789,11763,01.133,551
2023-04-21T06:38:52,42.805,6.029,CST-1368DR,4323,4788,11762,01.134,552
2023-04-21T06:41:53,42.805,6.029,CST-1368DR,4323,4789,11763,01.133,551
2023-04-21T06:44:55,42.805,6.029,CST-1368DR,4323,4788,11762,01.134,551
2023-04-21T06:47:56,42.805,6.029,CST-1368DR,4323,4788,11762,01.134,552
2023-04-21T06:50:58,42.805,6.029,CST-1368DR,4323,4787,11758,01.135,551
2023-04-21T06:53:59,42.805,6.029,CST-1368DR,4323,4788,11761,01.134,551
2023-04-21T06:57:01,42.805,6.029,CST-1368DR,4323,4788,11762,01.134,551
2023-04-21T07:00:03,42.805,6.029,CST-1368DR,4323,4788,11761,01.134,551
2023-04-21T07:03:04,42.805,6.029,CST-1368DR,4323,4788,11762,01.134,551
2023-04-21T07:06:06,42.805,6.029,CST-1368DR,4323,4788,11761,01.134,551
2023-04-21T07:09:07,42.805,6.029,CST-1368DR,4323,4788,11761,01.134,551
2023-04-21T07:12:09,42.805,6.029,CST-1368DR,4323,4788,11761,01.134,551
2023-04-21T07:15:10,42.805,6.029,CST-1368DR,4323,4788,11761,01.134,551
2023-04-21T07:18:12,42.805,6.029,CST-1368DR,4323,4788,11761,01.134,551
2023-04-21T07:21:14,42.805,6.029,CST-1368DR,4323,4788,11761,01.134,551
2023-04-21T07:24:15,42.805,6.029,CST-1368DR,4323,4788,11761,01.134,551
2023-04-21T07:27:17,42.805,6.029,CST-1368DR,4323,4788,11761,01.134,552
2023-04-21T07:30:18,42.805,6.029,CST-1368DR,4323,4788,11760,01.134,551
2023-04-21T07:33:20,42.805,6.029,CST-1368DR,4323,4788,11760,01.134,551
2023-04-21T07:36:22,42.805,6.029,CST-1368DR,4323,4787,11759,01.135,551
2023-04-21T07:39:23,42.805,6.029,CST-1368DR,4323,4788,11761,01.134,551
2023-04-21T07:42:25,42.805,6.029,CST-1368DR,4323,4788,11761,01.134,552
2023-04-21T07:45:26,42.805,6.029,CST-1368DR,4323,4786,11756,01.136,551
2023-04-21T07:48:28,42.805,6.029,CST-1368DR,4323,4788,11761,01.134,551
2023-04-21T07:51:29,42.805,6.029,CST-1368DR,4323,4788,11761,01.134,552
2023-04-21T07:54:31,42.805,6.029,CST-1368DR,4323,4787,11759,01.135,551
2023-04-21T07:57:33,42.805,6.029,CST-1368DR,4323,4786,11757,01.135,551
2023-04-21T08:00:34,42.805,6.029,CST-1368DR,4323,4785,11755,01.136,551
2023-04-21T08:03:36,42.805,6.029,CST-1368DR,4323,4787,11759,01.135,552
2023-04-21T08:06:37,42.805,6.029,CST-1368DR,4323,4788,11761,01.134,551
2023-04-21T08:09:39,42.805,6.029,CST-1368DR,4323,4789,11764,01.133,551
2023-04-21T08:12:40,42.805,6.029,CST-1368DR,4323,4788,11761,01.134,551
2023-04-21T08:15:42,42.805,6.029,CST-1368DR,4323,4787,11758,01.135,551
2023-04-21T08:18:44,42.805,6.029,CST-1368DR,4323,4788,11761,01.134,551
2023-04-21T08:21:45,42.805,6.029,CST-1368DR,4323,4788,11760,01.134,551
2023-04-21T08:24:47,42.805,6.029,CST-1368DR,4323,4788,11761,01.134,551
2023-04-21T08:27:48,42.805,6.029,CST-1368DR,4323,4789,11763,01.133,552
2023-04-21T08:30:51,42.805,6.029,CST-1368DR,4323,4789,11763,01.133,551
2023-04-21T08:33:52,42.805,6.029,CST-1368DR,4323,4788,11762,01.134,551
2023-04-21T08:36:54,42.805,6.029,CST-1368DR,4323,4788,11762,01.134,551
2023-04-21T08:39:55,42.805,6.029,CST-1368DR,4323,4788,11761,01.134,551
2023-04-21T08:42:57,42.805,6.029,CST-1368DR,4323,4789,11764,01.133,552
2023-04-21T08:45:59,42.805,6.029,CST-1368DR,4323,4788,11760,01.134,551
2023-04-21T08:49:00,42.805,6.029,CST-1368DR,4323,4788,11761,01.134,551
2023-04-21T08:52:02,42.805,6.029,CST-1368DR,4323,4788,11761,01.134,551
2023-04-21T08:55:03,42.805,6.029,CST-1368DR,4323,4788,11760,01.134,552
2023-04-21T08:58:05,42.805,6.029,CST-1368DR,4323,4788,11761,01.134,551
2023-04-21T09:01:06,42.805,6.029,CST-1368DR,4323,4788,11761,01.134,551
2023-04-21T09:04:08,42.805,6.029,CST-1368DR,4323,4787,11759,01.135,551
2023-04-21T09:07:10,42.805,6.029,CST-1368DR,4323,4788,11761,01.134,551
2023-04-21T09:10:11,42.805,6.029,CST-1368DR,4323,4788,11761,01.134,551
2023-04-21T09:13:13,42.805,6.029,CST-1368DR,4323,4788,11760,01.134,551
2023-04-21T09:16:14,42.805,6.029,CST-1368DR,4323,4789,11764,01.133,551
2023-04-21T09:19:16,42.805,6.029,CST-1368DR,4323,4788,11762,01.134,551
2023-04-21T09:22:18,42.805,6.029,CST-1368DR,4323,4788,11762,01.134,551
2023-04-21T09:25:19,42.805,6.029,CST-1368DR,4323,4788,11761,01.134,551
2023-04-21T09:28:21,42.805,6.029,CST-1368DR,4323,4788,11761,01.134,551
2023-04-21T09:31:22,42.805,6.029,CST-1368DR,4322,4779,11741,01.141,551
2023-04-21T09:34:24,42.805,6.029,CST-1368DR,4323,4789,11764,01.133,551
2023-04-21T09:37:25,42.805,6.029,CST-1368DR,4323,4788,11761,01.134,551
2023-04-21T09:40:27,42.805,6.029,CST-1368DR,4323,4788,11761,01.134,551
2023-04-21T09:43:29,42.805,6.029,CST-1368DR,4323,4789,11764,01.133,551
2023-04-21T09:46:30,42.805,6.029,CST-1368DR,4322,4788,11763,01.133,552
2023-04-21T09:49:32,42.805,6.029,CST-1368DR,4322,4788,11763,01.133,551
2023-04-21T09:52:33,42.805,6.029,CST-1368DR,4322,4788,11763,01.133,551
2023-04-21T09:55:35,42.805,6.029,CST-1368DR,4322,4789,11766,01.132,551
2023-04-21T09:58:36,42.805,6.029,CST-1368DR,4322,4788,11763,01.133,551
2023-04-21T10:01:38,42.805,6.029,CST-1368DR,4322,4787,11762,01.134,551
2023-04-21T10:04:40,42.805,6.029,CST-1368DR,4322,4788,11763,01.133,551
2023-04-21T10:07:41,42.805,6.029,CST-1368DR,4322,4787,11762,01.134,551
2023-04-21T10:10:43,42.805,6.029,CST-1368DR,4322,4788,11765,01.133,551
2023-04-21T10:13:44,42.805,6.029,CST-1368DR,4322,4788,11763,01.133,551
2023-04-21T10:16:46,42.805,6.029,CST-1368DR,4322,4788,11765,01.133,551
2023-04-21T10:19:48,42.805,6.029,CST-1368DR,4322,4788,11765,01.133,551
2023-04-21T10:22:49,42.805,6.029,CST-1368DR,4322,4788,11765,01.133,551
2023-04-21T10:25:51,42.805,6.029,CST-1368DR,4322,4788,11764,01.133,552
2023-04-21T10:28:52,42.805,6.029,CST-1368DR,4322,4788,11764,01.133,551
2023-04-21T10:31:54,42.805,6.029,CST-1368DR,4322,4788,11764,01.133,552
2023-04-21T10:34:55,42.805,6.029,CST-1368DR,4323,4789,11764,01.133,551
2023-04-21T10:37:57,42.805,6.029,CST-1368DR,4322,4788,11764,01.133,551
2023-04-21T10:40:59,42.805,6.029,CST-1368DR,4322,4788,11763,01.133,551
2023-04-21T10:44:00,42.805,6.029,CST-1368DR,4322,4788,11765,01.133,551
2023-04-21T10:47:02,42.805,6.029,CST-1368DR,4323,4789,11763,01.133,551
2023-04-21T10:50:03,42.805,6.029,CST-1368DR,4323,4788,11762,01.134,551
2023-04-21T10:53:05,42.805,6.029,CST-1368DR,4323,4788,11761,01.134,551
2023-04-21T10:56:06,42.805,6.029,CST-1368DR,4322,4788,11764,01.133,551
2023-04-21T10:59:08,42.805,6.029,CST-1368DR,4322,4789,11766,01.132,551
2023-04-21T11:02:10,42.805,6.029,CST-1368DR,4322,4788,11765,01.133,551
2023-04-21T11:05:11,42.805,6.029,CST-1368DR,4322,4788,11765,01.133,552
2023-04-21T11:08:13,42.805,6.029,CST-1368DR,4322,4788,11765,01.133,551
2023-04-21T11:11:14,42.805,6.029,CST-1368DR,4322,4790,11768,01.132,551
2023-04-21T11:14:16,42.805,6.029,CST-1368DR,4322,4789,11767,01.132,551
2023-04-21T11:17:17,42.805,6.029,CST-1368DR,4322,4790,11768,01.132,551
2023-04-21T11:20:19,42.805,6.029,CST-1368DR,4322,4788,11763,01.133,551
2023-04-21T11:23:21,42.805,6.029,CST-1368DR,4323,4788,11762,01.134,551
2023-04-21T11:26:22,42.805,6.029,CST-1368DR,4323,4789,11764,01.133,551
2023-04-21T11:29:24,42.805,6.029,CST-1368DR,4322,4789,11766,01.132,552
2023-04-21T11:32:25,42.805,6.029,CST-1368DR,4322,4788,11764,01.133,551
2023-04-21T11:35:27,42.805,6.029,CST-1368DR,4322,4787,11761,01.134,551
2023-04-21T11:38:28,42.805,6.029,CST-1368DR,4322,4788,11765,01.133,551
2023-04-21T11:41:30,42.805,6.029,CST-1368DR,4322,4788,11764,01.133,551
2023-04-21T11:44:32,42.805,6.029,CST-1368DR,4322,4788,11764,01.133,551
2023-04-21T11:47:33,42.805,6.029,CST-1368DR,4322,4788,11764,01.133,551
2023-04-21T11:50:35,42.805,6.029,CST-1368DR,4322,4789,11767,01.132,551
2023-04-21T11:53:36,42.805,6.029,CST-1368DR,4322,4789,11767,01.132,551
2023-04-21T11:56:38,42.805,6.029,CST-1368DR,4322,4789,11767,01.132,551
2023-04-21T11:59:40,42.805,6.029,CST-1368DR,4322,4789,11766,01.132,552
2023-04-21T12:02:41,42.805,6.029,CST-1368DR,4322,4789,11766,01.132,552
2023-04-21T12:05:43,42.805,6.029,CST-1368DR,4322,4788,11763,01.133,551
2023-04-21T12:08:44,42.805,6.029,CST-1368DR,4322,4789,11767,01.132,551
2023-04-21T12:11:46,42.805,6.029,CST-1368DR,4322,4789,11766,01.132,551
2023-04-21T12:14:47,42.805,6.029,CST-1368DR,4322,4789,11767,01.132,551
2023-04-21T12:17:49,42.805,6.029,CST-1368DR,4322,4790,11768,01.132,551
2023-04-21T12:20:51,42.805,6.029,CST-1368DR,4322,4789,11766,01.132,551
2023-04-21T12:23:52,42.805,6.029,CST-1368DR,4322,4786,11759,01.135,551
2023-04-21T12:26:54,42.805,6.029,CST-1368DR,4322,4788,11763,01.133,551
2023-04-21T12:29:55,42.805,6.029,CST-1368DR,4322,4789,11766,01.132,551
2023-04-21T12:32:57,42.805,6.029,CST-1368DR,4322,4788,11764,01.133,551
2023-04-21T12:35:59,42.805,6.029,CST-1368DR,4322,4787,11761,01.134,552
2023-04-21T12:39:01,42.805,6.029,CST-1368DR,4322,4788,11764,01.133,551
2023-04-21T12:42:02,42.805,6.029,CST-1368DR,4322,4788,11765,01.133,551
2023-04-21T12:45:04,42.805,6.029,CST-1368DR,4322,4788,11763,01.133,552
2023-04-21T12:48:05,42.805,6.029,CST-1368DR,4322,4788,11764,01.133,551
2023-04-21T12:51:07,42.805,6.029,CST-1368DR,4322,4788,11763,01.133,551
2023-04-21T12:54:08,42.805,6.029,CST-1368DR,4322,4788,11764,01.133,551
2023-04-21T12:57:10,42.805,6.029,CST-1368DR,4322,4785,11757,01.135,552
2023-04-21T13:00:12,42.805,6.029,CST-1368DR,4322,4789,11766,01.132,551
2023-04-21T13:03:13,42.805,6.029,CST-1368DR,4322,4788,11764,01.133,551
2023-04-21T13:06:15,42.805,6.029,CST-1368DR,4322,4788,11764,01.133,552
2023-04-21T13:09:16,42.805,6.029,CST-1368DR,4322,4789,11766,01.132,552
2023-04-21T13:12:18,42.805,6.029,CST-1368DR,4322,4789,11766,01.132,552
2023-04-21T13:15:19,42.805,6.029,CST-1368DR,4322,4789,11766,01.132,551
2023-04-21T13:18:21,42.805,6.029,CST-1368DR,4322,4781,11746,01.139,551
2023-04-21T13:21:23,42.805,6.029,CST-1368DR,4322,4789,11766,01.132,552
2023-04-21T13:24:24,42.805,6.029,CST-1368DR,4322,4790,11768,01.132,551
2023-04-21T13:27:26,42.805,6.029,CST-1368DR,4322,4787,11762,01.134,552
2023-04-21T13:30:27,42.805,6.029,CST-1368DR,4322,4788,11763,01.133,552
2023-04-21T13:33:29,42.805,6.029,CST-1368DR,4322,4787,11760,01.134,551
2023-04-21T13:36:31,42.805,6.029,CST-1368DR,4322,4790,11769,01.131,551
2023-04-21T13:39:32,42.805,6.029,CST-1368DR,4322,4789,11767,01.132,552
2023-04-21T13:42:34,42.805,6.029,CST-1368DR,4322,4789,11766,01.132,551
2023-04-21T13:45:35,42.805,6.029,CST-1368DR,4322,4789,11766,01.132,551
2023-04-21T13:48:37,42.805,6.029,CST-1368DR,4322,4789,11766,01.132,551
2023-04-21T13:51:38,42.805,6.029,CST-1368DR,4322,4790,11768,01.132,551
2023-04-21T13:54:40,42.805,6.029,CST-1368DR,4322,4789,11766,01.132,551
2023-04-21T13:57:42,42.805,6.029,CST-1368DR,4322,4789,11766,01.132,552
2023-04-21T14:00:43,42.805,6.029,CST-1368DR,4322,4790,11768,01.132,551
2023-04-21T14:03:45,42.805,6.029,CST-1368DR,4322,4790,11769,01.131,551
2023-04-21T14:06:46,42.805,6.029,CST-1368DR,4322,4790,11768,01.132,552
2023-04-21T14:09:48,42.805,6.029,CST-1368DR,4322,4789,11766,01.132,551
2023-04-21T14:12:49,42.805,6.029,CST-1368DR,4322,4789,11766,01.132,551
2023-04-21T14:15:51,42.805,6.029,CST-1368DR,4322,4788,11764,01.133,552
2023-04-21T14:18:53,42.805,6.029,CST-1368DR,4322,4790,11768,01.132,551
2023-04-21T14:21:54,42.805,6.029,CST-1368DR,4322,4791,11771,01.131,551
2023-04-21T14:24:56,42.805,6.029,CST-1368DR,4322,4790,11769,01.131,551
2023-04-21T14:27:57,42.805,6.029,CST-1368DR,4322,4789,11766,01.132,551
2023-04-21T14:30:59,42.805,6.029,CST-1368DR,4322,4789,11766,01.132,551
2023-04-21T14:34:01,42.805,6.029,CST-1368DR,4322,4790,11769,01.131,551
2023-04-21T14:37:02,42.805,6.029,CST-1368DR,4322,4790,11769,01.131,552
2023-04-21T14:40:04,42.805,6.029,CST-1368DR,4322,4789,11766,01.132,551
2023-04-21T14:43:05,42.805,6.029,CST-1368DR,4322,4790,11768,01.132,551
2023-04-21T14:46:07,42.805,6.029,CST-1368DR,4322,4790,11768,01.132,551
2023-04-21T14:49:08,42.805,6.029,CST-1368DR,4322,4788,11765,01.133,551
2023-04-21T14:52:10,42.805,6.029,CST-1368DR,4322,4789,11766,01.132,551
2023-04-21T14:55:12,42.805,6.029,CST-1368DR,4322,4790,11768,01.132,551
2023-04-21T14:58:13,42.805,6.029,CST-1368DR,4322,4790,11769,01.131,551
2023-04-21T15:01:15,42.805,6.029,CST-1368DR,4322,4786,11758,01.135,551
2023-04-21T15:04:16,42.805,6.029,CST-1368DR,4322,4789,11766,01.132,551
2023-04-21T15:07:18,42.805,6.029,CST-1368DR,4322,4790,11768,01.132,551
2023-04-21T15:10:19,42.805,6.029,CST-1368DR,4322,4790,11768,01.132,551
2023-04-21T15:13:21,42.805,6.029,CST-1368DR,4322,4790,11769,01.131,551
2023-04-21T15:16:23,42.805,6.029,CST-1368DR,4322,4790,11768,01.132,551
2023-04-21T15:19:24,42.805,6.029,CST-1368DR,4322,4789,11766,01.132,551
2023-04-21T15:22:26,42.805,6.029,CST-1368DR,4322,4789,11767,01.132,551
2023-04-21T15:25:27,42.805,6.029,CST-1368DR,4322,4790,11768,01.132,552
2023-04-21T15:28:29,42.805,6.029,CST-1368DR,4322,4789,11766,01.132,551
2023-04-21T15:31:30,42.805,6.029,CST-1368DR,4322,4789,11766,01.132,551
2023-04-21T15:34:32,42.805,6.029,CST-1368DR,4322,4789,11766,01.132,552
2023-04-21T15:37:34,42.805,6.029,CST-1368DR,4322,4787,11762,01.134,551
2023-04-21T15:40:35,42.805,6.029,CST-1368DR,4322,4788,11764,01.133,551
2023-04-21T15:43:37,42.805,6.029,CST-1368DR,4322,4788,11763,01.133,551
2023-04-21T15:46:38,42.805,6.029,CST-1368DR,4322,4790,11768,01.132,551
2023-04-21T15:49:40,42.805,6.029,CST-1368DR,4322,4789,11767,01.132,551
2023-04-21T15:52:42,42.805,6.029,CST-1368DR,4322,4789,11766,01.132,551
2023-04-21T15:55:43,42.805,6.029,CST-1368DR,4322,4788,11763,01.133,551
2023-04-21T15:58:45,42.805,6.029,CST-1368DR,4322,4790,11768,01.132,551
2023-04-21T16:01:46,42.805,6.029,CST-1368DR,4322,4790,11768,01.132,551
2023-04-21T16:04:48,42.805,6.029,CST-1368DR,4322,4790,11768,01.132,551
2023-04-21T16:07:49,42.805,6.029,CST-1368DR,4322,4787,11761,01.134,551
2023-04-21T16:10:51,42.805,6.029,CST-1368DR,4322,4790,11768,01.132,551
2023-04-21T16:13:53,42.805,6.029,CST-1368DR,4322,4790,11768,01.132,552
2023-04-21T16:16:54,42.805,6.029,CST-1368DR,4322,4789,11767,01.132,551
2023-04-21T16:19:56,42.805,6.029,CST-1368DR,4322,4786,11758,01.135,551
2023-04-21T16:22:57,42.805,6.029,CST-1368DR,4322,4789,11766,01.132,551
2023-04-21T16:25:59,42.805,6.029,CST-1368DR,4322,4789,11767,01.132,551
2023-04-21T16:29:00,42.805,6.029,CST-1368DR,4322,4787,11761,01.134,551
2023-04-21T16:32:02,42.805,6.029,CST-1368DR,4322,4786,11760,01.134,551
2023-04-21T16:35:04,42.805,6.029,CST-1368DR,4322,4788,11763,01.133,551
2023-04-21T16:38:05,42.805,6.029,CST-1368DR,4322,4788,11764,01.133,551